| time (UTC) | temp F | wind direction | speed MPH | gust MPH | rain 1hr in | rain 24hr in | rain mn in | humidity % | barometer mb |
| 20260901233053 | 96 | 0 | 0.0 | 4.0 | 0.00 | 0.00 | 0.00 | 47 | 1012.4 |
| 20260901232537 | 96 | 0 | 0.0 | 2.0 | 0.00 | 0.00 | 0.00 | 47 | 1012.5 |
| 20260901232037 | 96 | 0 | 0.0 | 7.0 | 0.00 | 0.00 | 0.00 | 48 | 1012.5 |
| 20260901231603 | 96 | 0 | 0.0 | 7.0 | 0.00 | 0.00 | 0.00 | 48 | 1012.5 |
| 20260901231036 | 96 | 0 | 0.0 | 6.0 | 0.00 | 0.00 | 0.00 | 48 | 1012.5 |
| 20260901230536 | 96 | 0 | 0.0 | 7.0 | 0.00 | 0.00 | 0.00 | 48 | 1012.7 |
| 20260901230137 | 96 | 0 | 0.0 | 7.0 | 0.00 | 0.00 | 0.00 | 48 | 1012.7 |
| 20260901225537 | 96 | 0 | 0.0 | 7.0 | 0.00 | 0.00 | 0.00 | 48 | 1012.7 |
| 20260901225036 | 96 | 0 | 0.0 | 7.0 | 0.00 | 0.00 | 0.00 | 47 | 1012.8 |
| 20260901224602 | 96 | 0 | 0.0 | 0.0 | 0.00 | 0.00 | 0.00 | 47 | 1012.7 |
| 20260901224041 | 96 | 0 | 0.0 | 1.0 | 0.00 | 0.00 | 0.00 | 48 | 1012.8 |
| 20260901223537 | 96 | 0 | 0.0 | 9.0 | 0.00 | 0.00 | 0.00 | 47 | 1012.9 |
| 20260901223119 | 96 | 0 | 0.0 | 9.0 | 0.00 | 0.00 | 0.00 | 47 | 1012.8 |
| 20260901222537 | 96 | 0 | 1.0 | 9.0 | 0.00 | 0.00 | 0.00 | 47 | 1012.8 |
| 20260901222036 | 96 | 0 | 0.0 | 7.0 | 0.00 | 0.00 | 0.00 | 47 | 1012.8 |
| 20260901221600 | 96 | 0 | 0.0 | 0.0 | 0.00 | 0.00 | 0.00 | 46 | 1012.9 |
| 20260901221039 | 96 | 0 | 0.0 | 1.0 | 0.00 | 0.00 | 0.00 | 46 | 1012.8 |
| 20260901220538 | 96 | 0 | 0.0 | 1.0 | 0.00 | 0.00 | 0.00 | 46 | 1012.8 |
| 20260901220108 | 96 | 0 | 0.0 | 0.0 | 0.00 | 0.00 | 0.00 | 45 | 1012.6 |
| 20260901215539 | 96 | 0 | 0.0 | 10.0 | 0.00 | 0.00 | 0.00 | 46 | 1012.8 |
| 20260901215038 | 96 | 0 | 0.0 | 10.0 | 0.00 | 0.00 | 0.00 | 45 | 1012.9 |
| 20260901214602 | 97 | 77 | 0.0 | 9.0 | 0.00 | 0.00 | 0.00 | 45 | 1013.0 |
| 20260901214038 | 98 | 83 | 0.0 | 9.0 | 0.00 | 0.00 | 0.00 | 44 | 1012.9 |
| 20260901213538 | 98 | 25 | 0.0 | 7.0 | 0.00 | 0.00 | 0.00 | 45 | 1012.9 |
| 20260901213105 | 97 | 0 | 0.0 | 7.0 | 0.00 | 0.00 | 0.00 | 46 | 1012.9 |
| 20260901212538 | 96 | 0 | 0.0 | 3.0 | 0.00 | 0.00 | 0.00 | 47 | 1012.9 |
| 20260901212038 | 96 | 0 | 0.0 | 5.0 | 0.00 | 0.00 | 0.00 | 48 | 1012.9 |
| 20260901211603 | 96 | 0 | 0.0 | 5.0 | 0.00 | 0.00 | 0.00 | 47 | 1013.0 |
| 20260901211039 | 96 | 0 | 0.0 | 3.0 | 0.00 | 0.00 | 0.00 | 46 | 1013.0 |
| 20260901210538 | 96 | 0 | 0.0 | 8.0 | 0.00 | 0.00 | 0.00 | 48 | 1013.2 |
| 20260901205537 | 97 | 0 | 1.0 | 12.0 | 0.00 | 0.00 | 0.00 | 47 | 1013.4 |
| 20260901205039 | 97 | 0 | 1.0 | 10.0 | 0.00 | 0.00 | 0.00 | 47 | 1013.5 |
| 20260901204606 | 98 | 0 | 0.0 | 12.0 | 0.00 | 0.00 | 0.00 | 45 | 1013.4 |
| 20260901204039 | 101 | 0 | 1.0 | 12.0 | 0.00 | 0.00 | 0.00 | 42 | 1013.6 |
| 20260901203539 | 101 | 0 | 0.0 | 6.0 | 0.00 | 0.00 | 0.00 | 43 | 1013.7 |
| 20260901203110 | 99 | 0 | 0.0 | 0.0 | 0.00 | 0.00 | 0.00 | 45 | 1013.6 |
| 20260901202539 | 99 | 0 | 0.0 | 0.0 | 0.00 | 0.00 | 0.00 | 46 | 1013.8 |
| 20260901202038 | 97 | 0 | 0.0 | 0.0 | 0.00 | 0.00 | 0.00 | 48 | 1014.1 |
| 20260901201607 | 96 | 0 | 0.0 | 3.0 | 0.00 | 0.00 | 0.00 | 48 | 1014.1 |
| 20260901201038 | 96 | 0 | 0.0 | 3.0 | 0.00 | 0.00 | 0.00 | 49 | 1014.4 |
| 20260901200537 | 96 | 55 | 0.0 | 0.0 | 0.00 | 0.00 | 0.00 | 49 | 1014.3 |
| 20260901200107 | 96 | 0 | 0.0 | 0.0 | 0.00 | 0.00 | 0.00 | 50 | 1014.3 |
| 20260901195538 | 96 | 0 | 0.0 | 0.0 | 0.00 | 0.00 | 0.00 | 50 | 1014.2 |
| 20260901195038 | 96 | 0 | 0.0 | 0.0 | 0.00 | 0.00 | 0.00 | 50 | 1014.3 |
| 20260901194604 | 96 | 0 | 0.0 | 0.0 | 0.00 | 0.00 | 0.00 | 50 | 1014.4 |
| 20260901194037 | 96 | 0 | 0.0 | 1.0 | 0.00 | 0.00 | 0.00 | 50 | 1014.5 |
| 20260901193540 | 96 | 0 | 0.0 | 8.0 | 0.00 | 0.00 | 0.00 | 51 | 1014.5 |
| 20260901193102 | 96 | 0 | 0.0 | 8.0 | 0.00 | 0.00 | 0.00 | 51 | 1014.6 |
| 20260901192538 | 95 | 0 | 0.0 | 0.0 | 0.00 | 0.00 | 0.00 | 51 | 1014.6 |
| 20260901192040 | 95 | 0 | 0.0 | 8.0 | 0.00 | 0.00 | 0.00 | 51 | 1014.5 |
| 20260901191605 | 95 | 0 | 0.0 | 10.0 | 0.00 | 0.00 | 0.00 | 51 | 1014.5 |
| 20260901191038 | 95 | 0 | 1.0 | 10.0 | 0.00 | 0.00 | 0.00 | 50 | 1014.5 |
| 20260901190538 | 97 | 0 | 1.0 | 11.0 | 0.00 | 0.00 | 0.00 | 49 | 1014.4 |
| 20260901190110 | 97 | 0 | 2.0 | 11.0 | 0.00 | 0.00 | 0.00 | 49 | 1014.6 |
| 20260901185539 | 96 | 38 | 0.0 | 9.0 | 0.00 | 0.00 | 0.00 | 50 | 1014.5 |
| 20260901185038 | 96 | 0 | 0.0 | 9.0 | 0.00 | 0.00 | 0.00 | 50 | 1014.5 |
| 20260901184601 | 96 | 0 | 0.0 | 8.0 | 0.00 | 0.00 | 0.00 | 50 | 1014.8 |
| 20260901184037 | 97 | 0 | 0.0 | 13.0 | 0.00 | 0.00 | 0.00 | 50 | 1014.7 |
| 20260901183536 | 97 | 93 | 1.0 | 13.0 | 0.00 | 0.00 | 0.00 | 50 | 1014.8 |
| 20260901183056 | 96 | 0 | 0.0 | 0.0 | 0.00 | 0.00 | 0.00 | 52 | 1015.1 |
| 20260901182539 | 95 | 0 | 0.0 | 0.0 | 0.00 | 0.00 | 0.00 | 53 | 1015.1 |
| 20260901182036 | 95 | 0 | 0.0 | 0.0 | 0.00 | 0.00 | 0.00 | 51 | 1015.3 |
| 20260901181605 | 95 | 0 | 0.0 | 0.0 | 0.00 | 0.00 | 0.00 | 52 | 1015.3 |
| 20260901181039 | 96 | 0 | 0.0 | 0.0 | 0.00 | 0.00 | 0.00 | 52 | 1015.3 |
| 20260901180537 | 93 | 0 | 0.0 | 0.0 | 0.00 | 0.00 | 0.00 | 56 | 1015.4 |
| 20260901175537 | 94 | 0 | 0.0 | 0.0 | 0.00 | 0.00 | 0.00 | 56 | 1015.6 |
| 20260901175036 | 94 | 0 | 0.0 | 1.0 | 0.00 | 0.00 | 0.00 | 54 | 1015.6 |
| 20260901174559 | 97 | 0 | 0.0 | 6.0 | 0.00 | 0.00 | 0.00 | 51 | 1015.9 |
| 20260901174039 | 97 | 0 | 0.0 | 10.0 | 0.00 | 0.00 | 0.00 | 52 | 1016.0 |
| 20260901173536 | 96 | 0 | 1.0 | 10.0 | 0.00 | 0.00 | 0.00 | 51 | 1016.0 |
| 20260901173111 | 97 | 0 | 0.0 | 7.0 | 0.00 | 0.00 | 0.00 | 51 | 1016.1 |
| 20260901172536 | 96 | 0 | 0.0 | 11.0 | 0.00 | 0.00 | 0.00 | 51 | 1016.0 |
| 20260901172036 | 96 | 0 | 0.0 | 11.0 | 0.00 | 0.00 | 0.00 | 51 | 1016.1 |
| 20260901171620 | 95 | 0 | 0.0 | 11.0 | 0.00 | 0.00 | 0.00 | 54 | 1016.3 |
| 20260901171040 | 94 | 0 | 0.0 | 11.0 | 0.00 | 0.00 | 0.00 | 54 | 1016.2 |
| 20260901170537 | 94 | 71 | 0.0 | 11.0 | 0.00 | 0.00 | 0.00 | 54 | 1016.4 |
| 20260901170105 | 95 | 0 | 0.0 | 9.0 | 0.00 | 0.00 | 0.00 | 53 | 1016.3 |
| 20260901165537 | 95 | 0 | 1.0 | 9.0 | 0.00 | 0.00 | 0.00 | 55 | 1016.4 |
| 20260901165039 | 95 | 0 | 0.0 | 10.0 | 0.00 | 0.00 | 0.00 | 56 | 1016.4 |
| 20260901164634 | 94 | 0 | 0.0 | 10.0 | 0.00 | 0.00 | 0.00 | 56 | 1016.4 |
| 20260901164040 | 95 | 59 | 1.0 | 11.0 | 0.00 | 0.00 | 0.00 | 57 | 1016.3 |
| 20260901163536 | 94 | 0 | 1.0 | 11.0 | 0.00 | 0.00 | 0.00 | 57 | 1016.5 |
| 20260901163104 | 94 | 0 | 0.0 | 3.0 | 0.00 | 0.00 | 0.00 | 58 | 1016.4 |
| 20260901162537 | 93 | 0 | 0.0 | 3.0 | 0.00 | 0.00 | 0.00 | 60 | 1016.4 |
| 20260901162037 | 92 | 0 | 0.0 | 0.0 | 0.00 | 0.00 | 0.00 | 60 | 1016.5 |
| 20260901161608 | 94 | 0 | 0.0 | 0.0 | 0.00 | 0.00 | 0.00 | 58 | 1016.5 |
| 20260901161036 | 93 | 0 | 0.0 | 0.0 | 0.00 | 0.00 | 0.00 | 61 | 1016.5 |
| 20260901160536 | 91 | 0 | 0.0 | 0.0 | 0.00 | 0.00 | 0.00 | 64 | 1016.5 |
| 20260901155538 | 90 | 0 | 0.0 | 0.0 | 0.00 | 0.00 | 0.00 | 65 | 1016.6 |
| 20260901155036 | 89 | 0 | 0.0 | 0.0 | 0.00 | 0.00 | 0.00 | 67 | 1016.6 |
| 20260901154601 | 90 | 0 | 0.0 | 0.0 | 0.00 | 0.00 | 0.00 | 67 | 1016.8 |
| 20260901154036 | 89 | 0 | 0.0 | 0.0 | 0.00 | 0.00 | 0.00 | 69 | 1016.8 |
| 20260901153539 | 90 | 0 | 0.0 | 0.0 | 0.00 | 0.00 | 0.00 | 67 | 1016.7 |
| 20260901153100 | 90 | 0 | 0.0 | 0.0 | 0.00 | 0.00 | 0.00 | 68 | 1016.8 |
| 20260901152536 | 90 | 0 | 0.0 | 0.0 | 0.00 | 0.00 | 0.00 | 70 | 1016.7 |
| 20260901152036 | 87 | 0 | 0.0 | 0.0 | 0.00 | 0.00 | 0.00 | 72 | 1016.8 |
| 20260901151557 | 87 | 0 | 0.0 | 0.0 | 0.00 | 0.00 | 0.00 | 73 | 1016.7 |
| 20260901151036 | 87 | 0 | 0.0 | 0.0 | 0.00 | 0.00 | 0.00 | 72 | 1016.7 |
| 20260901150536 | 87 | 0 | 0.0 | 0.0 | 0.00 | 0.00 | 0.00 | 71 | 1016.7 |
| 20260901150108 | 88 | 0 | 0.0 | 0.0 | 0.00 | 0.00 | 0.00 | 70 | 1016.6 |
| 20260901145540 | 88 | 0 | 0.0 | 0.0 | 0.00 | 0.00 | 0.00 | 70 | 1016.7 |
| 20260901145036 | 88 | 0 | 0.0 | 0.0 | 0.00 | 0.00 | 0.00 | 71 | 1016.6 |
| 20260901144605 | 88 | 0 | 0.0 | 0.0 | 0.00 | 0.00 | 0.00 | 71 | 1016.6 |
| 20260901144037 | 88 | 0 | 0.0 | 0.0 | 0.00 | 0.00 | 0.00 | 71 | 1016.6 |
| 20260901143536 | 88 | 0 | 0.0 | 0.0 | 0.00 | 0.00 | 0.00 | 72 | 1016.6 |
| 20260901143102 | 88 | 0 | 0.0 | 0.0 | 0.00 | 0.00 | 0.00 | 72 | 1016.7 |
| 20260901142537 | 87 | 0 | 0.0 | 0.0 | 0.00 | 0.00 | 0.00 | 75 | 1016.6 |
| 20260901142036 | 86 | 0 | 0.0 | 0.0 | 0.00 | 0.00 | 0.00 | 76 | 1016.8 |
| 20260901141608 | 86 | 0 | 0.0 | 0.0 | 0.00 | 0.00 | 0.00 | 77 | 1017.0 |
| 20260901141038 | 85 | 0 | 0.0 | 0.0 | 0.00 | 0.00 | 0.00 | 78 | 1016.9 |
| 20260901140538 | 85 | 0 | 0.0 | 0.0 | 0.00 | 0.00 | 0.00 | 79 | 1017.0 |
| 20260901135537 | 83 | 0 | 0.0 | 0.0 | 0.00 | 0.00 | 0.00 | 82 | 1016.9 |
| 20260901135039 | 83 | 0 | 0.0 | 0.0 | 0.00 | 0.00 | 0.00 | 83 | 1016.8 |
| 20260901134604 | 82 | 0 | 0.0 | 0.0 | 0.00 | 0.00 | 0.00 | 84 | 1016.9 |
| 20260901134035 | 81 | 0 | 0.0 | 0.0 | 0.00 | 0.00 | 0.00 | 85 | 1016.9 |
| 20260901133536 | 81 | 0 | 0.0 | 0.0 | 0.00 | 0.00 | 0.00 | 86 | 1017.1 |
| 20260901133103 | 80 | 0 | 0.0 | 0.0 | 0.00 | 0.00 | 0.00 | 87 | 1017.0 |
| 20260901132538 | 79 | 0 | 0.0 | 0.0 | 0.00 | 0.00 | 0.00 | 89 | 1017.0 |
| 20260901132037 | 78 | 0 | 0.0 | 0.0 | 0.00 | 0.00 | 0.00 | 90 | 1016.9 |
| 20260901131608 | 77 | 0 | 0.0 | 0.0 | 0.00 | 0.00 | 0.00 | 91 | 1016.9 |
| 20260901131036 | 77 | 0 | 0.0 | 0.0 | 0.00 | 0.00 | 0.00 | 92 | 1016.8 |
| 20260901130536 | 76 | 0 | 0.0 | 0.0 | 0.00 | 0.00 | 0.00 | 92 | 1016.8 |
| 20260901130056 | 75 | 0 | 0.0 | 0.0 | 0.00 | 0.00 | 0.00 | 92 | 1016.7 |
| 20260901125536 | 75 | 0 | 0.0 | 0.0 | 0.00 | 0.00 | 0.00 | 92 | 1016.7 |
| 20260901125039 | 74 | 0 | 0.0 | 0.0 | 0.00 | 0.00 | 0.00 | 92 | 1016.5 |
| 20260901124603 | 74 | 0 | 0.0 | 0.0 | 0.00 | 0.00 | 0.00 | 92 | 1016.4 |
| 20260901124038 | 74 | 0 | 0.0 | 0.0 | 0.00 | 0.00 | 0.00 | 92 | 1016.4 |
| 20260901123541 | 74 | 0 | 0.0 | 0.0 | 0.00 | 0.00 | 0.00 | 92 | 1016.3 |
| 20260901123102 | 74 | 0 | 0.0 | 0.0 | 0.00 | 0.00 | 0.00 | 92 | 1016.4 |
| 20260901122539 | 74 | 0 | 0.0 | 0.0 | 0.00 | 0.00 | 0.00 | 92 | 1016.2 |
| 20260901122038 | 74 | 0 | 0.0 | 0.0 | 0.00 | 0.00 | 0.00 | 92 | 1016.1 |
| 20260901121612 | 74 | 0 | 0.0 | 0.0 | 0.00 | 0.00 | 0.00 | 92 | 1016.1 |
| 20260901121038 | 74 | 0 | 0.0 | 0.0 | 0.00 | 0.00 | 0.00 | 92 | 1016.1 |
| 20260901120539 | 74 | 0 | 0.0 | 0.0 | 0.00 | 0.00 | 0.00 | 92 | 1016.0 |
| 20260901120124 | 74 | 0 | 0.0 | 0.0 | 0.00 | 0.00 | 0.00 | 92 | 1016.0 |
| 20260901115539 | 74 | 0 | 0.0 | 0.0 | 0.00 | 0.00 | 0.00 | 92 | 1015.9 |
| 20260901115038 | 74 | 0 | 0.0 | 0.0 | 0.00 | 0.00 | 0.00 | 92 | 1015.8 |
| 20260901114604 | 74 | 0 | 0.0 | 0.0 | 0.00 | 0.00 | 0.00 | 92 | 1015.8 |
| 20260901114038 | 74 | 0 | 0.0 | 0.0 | 0.00 | 0.00 | 0.00 | 92 | 1015.7 |
| 20260901113538 | 74 | 0 | 0.0 | 0.0 | 0.00 | 0.00 | 0.00 | 92 | 1015.8 |
| 20260901113105 | 74 | 0 | 0.0 | 0.0 | 0.00 | 0.00 | 0.00 | 91 | 1015.8 |
| 20260901112538 | 74 | 0 | 0.0 | 0.0 | 0.00 | 0.00 | 0.00 | 91 | 1015.8 |
| 20260901112038 | 74 | 0 | 0.0 | 0.0 | 0.00 | 0.00 | 0.00 | 91 | 1015.8 |
| 20260901111609 | 74 | 0 | 0.0 | 0.0 | 0.00 | 0.00 | 0.00 | 91 | 1015.7 |
| 20260901111038 | 74 | 0 | 0.0 | 0.0 | 0.00 | 0.00 | 0.00 | 91 | 1015.7 |
| 20260901110538 | 74 | 0 | 0.0 | 0.0 | 0.00 | 0.00 | 0.00 | 91 | 1015.6 |
| 20260901105538 | 75 | 0 | 0.0 | 0.0 | 0.00 | 0.00 | 0.00 | 91 | 1015.5 |
| 20260901105036 | 75 | 0 | 0.0 | 0.0 | 0.00 | 0.00 | 0.00 | 91 | 1015.4 |
| 20260901104602 | 75 | 0 | 0.0 | 0.0 | 0.00 | 0.00 | 0.00 | 91 | 1015.6 |
| 20260901104039 | 74 | 0 | 0.0 | 0.0 | 0.00 | 0.00 | 0.00 | 91 | 1015.6 |
| 20260901103539 | 75 | 0 | 0.0 | 0.0 | 0.00 | 0.00 | 0.00 | 91 | 1015.5 |
| 20260901103124 | 75 | 0 | 0.0 | 0.0 | 0.00 | 0.00 | 0.00 | 91 | 1015.5 |
| 20260901102538 | 75 | 0 | 0.0 | 0.0 | 0.00 | 0.00 | 0.00 | 91 | 1015.6 |
| 20260901102038 | 75 | 0 | 0.0 | 0.0 | 0.00 | 0.00 | 0.00 | 91 | 1015.4 |
| 20260901101601 | 75 | 0 | 0.0 | 0.0 | 0.00 | 0.00 | 0.00 | 90 | 1015.4 |
| 20260901101039 | 75 | 0 | 0.0 | 0.0 | 0.00 | 0.00 | 0.00 | 90 | 1015.5 |
| 20260901100538 | 75 | 0 | 0.0 | 0.0 | 0.00 | 0.00 | 0.00 | 90 | 1015.5 |
| 20260901100106 | 75 | 0 | 0.0 | 0.0 | 0.00 | 0.00 | 0.00 | 90 | 1015.4 |
| 20260901095538 | 75 | 0 | 0.0 | 0.0 | 0.00 | 0.00 | 0.00 | 90 | 1015.4 |
| 20260901095038 | 75 | 0 | 0.0 | 0.0 | 0.00 | 0.00 | 0.00 | 90 | 1015.4 |
| 20260901094557 | 75 | 0 | 0.0 | 0.0 | 0.00 | 0.00 | 0.00 | 90 | 1015.4 |
| 20260901094037 | 75 | 0 | 0.0 | 0.0 | 0.00 | 0.00 | 0.00 | 90 | 1015.5 |
| 20260901093539 | 75 | 0 | 0.0 | 0.0 | 0.00 | 0.00 | 0.00 | 90 | 1015.4 |
| 20260901093129 | 76 | 0 | 0.0 | 0.0 | 0.00 | 0.00 | 0.00 | 89 | 1015.5 |
| 20260901092537 | 76 | 0 | 0.0 | 0.0 | 0.00 | 0.00 | 0.00 | 89 | 1015.4 |
| 20260901092037 | 76 | 0 | 0.0 | 0.0 | 0.00 | 0.00 | 0.00 | 89 | 1015.5 |
| 20260901091607 | 76 | 0 | 0.0 | 0.0 | 0.00 | 0.00 | 0.00 | 89 | 1015.6 |
| 20260901091037 | 76 | 0 | 0.0 | 0.0 | 0.00 | 0.00 | 0.00 | 89 | 1015.7 |
| 20260901090536 | 76 | 0 | 0.0 | 0.0 | 0.00 | 0.00 | 0.00 | 89 | 1015.8 |
| 20260901090101 | 76 | 0 | 0.0 | 0.0 | 0.00 | 0.00 | 0.00 | 89 | 1015.6 |
| 20260901085536 | 76 | 0 | 0.0 | 0.0 | 0.00 | 0.00 | 0.00 | 89 | 1015.7 |
| 20260901085036 | 76 | 0 | 0.0 | 0.0 | 0.00 | 0.00 | 0.00 | 89 | 1015.5 |
| 20260901084556 | 76 | 0 | 0.0 | 0.0 | 0.00 | 0.00 | 0.00 | 89 | 1015.5 |
| 20260901084036 | 76 | 0 | 0.0 | 0.0 | 0.00 | 0.00 | 0.00 | 89 | 1015.6 |
| 20260901083538 | 76 | 0 | 0.0 | 0.0 | 0.00 | 0.00 | 0.00 | 88 | 1015.7 |
| 20260901083106 | 76 | 0 | 0.0 | 0.0 | 0.00 | 0.00 | 0.00 | 88 | 1015.6 |
| 20260901082537 | 77 | 0 | 0.0 | 0.0 | 0.00 | 0.00 | 0.00 | 88 | 1015.6 |
| 20260901082036 | 77 | 0 | 0.0 | 0.0 | 0.00 | 0.00 | 0.00 | 88 | 1015.7 |
| 20260901081615 | 77 | 0 | 0.0 | 0.0 | 0.00 | 0.00 | 0.00 | 88 | 1015.7 |
| 20260901081036 | 77 | 0 | 0.0 | 0.0 | 0.00 | 0.00 | 0.00 | 87 | 1015.7 |
| 20260901080539 | 77 | 0 | 0.0 | 0.0 | 0.00 | 0.00 | 0.00 | 87 | 1015.7 |
| 20260901080106 | 77 | 0 | 0.0 | 0.0 | 0.00 | 0.00 | 0.00 | 87 | 1015.6 |
| 20260901075539 | 77 | 0 | 0.0 | 0.0 | 0.00 | 0.00 | 0.00 | 87 | 1015.7 |
| 20260901075037 | 77 | 0 | 0.0 | 0.0 | 0.00 | 0.00 | 0.00 | 87 | 1015.5 |
| 20260901074559 | 77 | 0 | 0.0 | 0.0 | 0.00 | 0.00 | 0.00 | 87 | 1015.6 |
| 20260901074129 | 78 | 0 | 0.0 | 0.0 | 0.00 | 0.00 | 0.00 | 86 | 1015.6 |
| 20260901073537 | 78 | 0 | 0.0 | 0.0 | 0.00 | 0.00 | 0.00 | 86 | 1015.7 |
| 20260901073100 | 78 | 0 | 0.0 | 0.0 | 0.00 | 0.00 | 0.00 | 86 | 1015.6 |
| 20260901072536 | 78 | 0 | 0.0 | 0.0 | 0.00 | 0.00 | 0.00 | 86 | 1015.5 |
| 20260901072035 | 78 | 0 | 0.0 | 0.0 | 0.00 | 0.00 | 0.00 | 85 | 1015.8 |
| 20260901071602 | 78 | 0 | 0.0 | 0.0 | 0.00 | 0.00 | 0.00 | 85 | 1015.7 |
| 20260901071039 | 78 | 0 | 0.0 | 0.0 | 0.00 | 0.00 | 0.00 | 85 | 1015.8 |
| 20260901070536 | 78 | 0 | 0.0 | 0.0 | 0.00 | 0.00 | 0.00 | 84 | 1015.8 |
| 20260901070105 | 79 | 0 | 0.0 | 0.0 | 0.00 | 0.00 | 0.00 | 84 | 1015.8 |
| 20260901065537 | 79 | 0 | 0.0 | 0.0 | 0.00 | 0.00 | 0.00 | 84 | 1015.7 |
| 20260901065037 | 79 | 0 | 0.0 | 0.0 | 0.00 | 0.00 | 0.00 | 84 | 1015.9 |
| 20260901064600 | 79 | 0 | 0.0 | 0.0 | 0.00 | 0.00 | 0.00 | 83 | 1015.9 |
| 20260901064039 | 79 | 0 | 0.0 | 0.0 | 0.00 | 0.00 | 0.00 | 83 | 1016.0 |
| 20260901063536 | 79 | 0 | 0.0 | 0.0 | 0.00 | 0.00 | 0.00 | 83 | 1016.1 |
| 20260901063054 | 79 | 0 | 0.0 | 0.0 | 0.00 | 0.00 | 0.00 | 83 | 1016.1 |
| 20260901062538 | 79 | 0 | 0.0 | 0.0 | 0.00 | 0.00 | 0.00 | 82 | 1016.1 |
| 20260901062038 | 79 | 0 | 0.0 | 0.0 | 0.00 | 0.00 | 0.00 | 82 | 1016.1 |
| 20260901061556 | 79 | 0 | 0.0 | 0.0 | 0.00 | 0.00 | 0.00 | 82 | 1016.0 |
| 20260901061039 | 79 | 0 | 0.0 | 0.0 | 0.00 | 0.00 | 0.00 | 82 | 1015.9 |
| 20260901060539 | 79 | 0 | 0.0 | 0.0 | 0.00 | 0.00 | 0.00 | 81 | 1015.9 |
| 20260901060100 | 79 | 0 | 0.0 | 0.0 | 0.00 | 0.00 | 0.00 | 81 | 1015.9 |
| 20260901055538 | 80 | 0 | 0.0 | 0.0 | 0.00 | 0.00 | 0.00 | 80 | 1015.8 |
| 20260901055038 | 80 | 0 | 0.0 | 0.0 | 0.00 | 0.00 | 0.00 | 80 | 1015.8 |
| 20260901054602 | 80 | 0 | 0.0 | 0.0 | 0.00 | 0.00 | 0.00 | 80 | 1015.6 |
| 20260901054038 | 80 | 0 | 0.0 | 0.0 | 0.00 | 0.00 | 0.00 | 80 | 1015.6 |
| 20260901053538 | 80 | 0 | 0.0 | 0.0 | 0.00 | 0.00 | 0.00 | 79 | 1015.6 |
| 20260901053124 | 80 | 0 | 0.0 | 0.0 | 0.00 | 0.00 | 0.00 | 79 | 1015.6 |
| 20260901052537 | 80 | 0 | 0.0 | 0.0 | 0.00 | 0.00 | 0.00 | 78 | 1015.7 |
| 20260901052038 | 80 | 0 | 0.0 | 0.0 | 0.00 | 0.00 | 0.00 | 78 | 1015.5 |
| 20260901051603 | 80 | 0 | 0.0 | 0.0 | 0.00 | 0.00 | 0.00 | 78 | 1015.5 |
| 20260901051038 | 80 | 0 | 0.0 | 0.0 | 0.00 | 0.00 | 0.00 | 78 | 1015.3 |
| 20260901050540 | 80 | 0 | 0.0 | 0.0 | 0.00 | 0.00 | 0.00 | 77 | 1015.4 |
| 20260901050055 | 80 | 0 | 0.0 | 0.0 | 0.00 | 0.00 | 0.00 | 77 | 1015.3 |
| 20260901045538 | 80 | 0 | 0.0 | 0.0 | 0.00 | 0.00 | 0.00 | 77 | 1015.2 |
| 20260901045038 | 81 | 0 | 0.0 | 0.0 | 0.00 | 0.00 | 0.00 | 76 | 1015.2 |
| 20260901044554 | 81 | 0 | 0.0 | 0.0 | 0.00 | 0.00 | 0.00 | 76 | 1015.2 |
| 20260901044040 | 81 | 0 | 0.0 | 0.0 | 0.00 | 0.00 | 0.00 | 76 | 1015.2 |
| 20260901043538 | 81 | 0 | 0.0 | 0.0 | 0.00 | 0.00 | 0.00 | 75 | 1015.1 |
| 20260901043130 | 81 | 0 | 0.0 | 0.0 | 0.00 | 0.00 | 0.00 | 75 | 1015.2 |
| 20260901042538 | 81 | 0 | 0.0 | 0.0 | 0.00 | 0.00 | 0.00 | 74 | 1015.1 |
| 20260901042038 | 82 | 0 | 0.0 | 0.0 | 0.00 | 0.00 | 0.00 | 74 | 1015.1 |
| 20260901041611 | 82 | 0 | 0.0 | 0.0 | 0.00 | 0.00 | 0.00 | 74 | 1015.1 |
| 20260901041038 | 82 | 0 | 0.0 | 0.0 | 0.00 | 0.00 | 0.00 | 74 | 1015.1 |
| 20260901040538 | 82 | 0 | 0.0 | 0.0 | 0.00 | 0.00 | 0.00 | 73 | 1015.0 |
| 20260901040106 | 82 | 0 | 0.0 | 0.0 | 0.00 | 0.00 | 0.00 | 73 | 1015.1 |
| 20260901035538 | 82 | 0 | 0.0 | 0.0 | 0.00 | 0.00 | 0.00 | 73 | 1014.9 |
| 20260901035041 | 82 | 0 | 0.0 | 0.0 | 0.00 | 0.00 | 0.00 | 73 | 1014.9 |
| 20260901034607 | 82 | 0 | 0.0 | 0.0 | 0.00 | 0.00 | 0.00 | 73 | 1015.0 |
| 20260901034037 | 82 | 0 | 0.0 | 0.0 | 0.00 | 0.00 | 0.00 | 73 | 1014.8 |
| 20260901033538 | 83 | 0 | 0.0 | 0.0 | 0.00 | 0.00 | 0.00 | 73 | 1015.0 |
| 20260901033108 | 83 | 0 | 0.0 | 0.0 | 0.00 | 0.00 | 0.00 | 72 | 1014.8 |
| 20260901032541 | 83 | 0 | 0.0 | 0.0 | 0.00 | 0.00 | 0.00 | 72 | 1014.8 |
| 20260901032039 | 83 | 0 | 0.0 | 0.0 | 0.00 | 0.00 | 0.00 | 72 | 1014.7 |
| 20260901031601 | 83 | 0 | 0.0 | 0.0 | 0.00 | 0.00 | 0.00 | 72 | 1014.7 |
| 20260901031038 | 83 | 0 | 0.0 | 0.0 | 0.00 | 0.00 | 0.00 | 73 | 1014.8 |
| 20260901030539 | 83 | 0 | 0.0 | 0.0 | 0.00 | 0.00 | 0.00 | 73 | 1014.7 |
| 20260901030058 | 83 | 0 | 0.0 | 0.0 | 0.00 | 0.00 | 0.00 | 73 | 1014.9 |
| 20260901025538 | 83 | 0 | 0.0 | 0.0 | 0.00 | 0.00 | 0.00 | 73 | 1014.6 |
| 20260901025039 | 84 | 0 | 0.0 | 0.0 | 0.00 | 0.00 | 0.00 | 72 | 1014.4 |
| 20260901024608 | 84 | 0 | 0.0 | 0.0 | 0.00 | 0.00 | 0.00 | 72 | 1014.5 |
| 20260901024038 | 84 | 0 | 0.0 | 0.0 | 0.00 | 0.00 | 0.00 | 71 | 1014.4 |
| 20260901023539 | 85 | 0 | 0.0 | 0.0 | 0.00 | 0.00 | 0.00 | 70 | 1014.4 |
| 20260901023103 | 85 | 0 | 0.0 | 0.0 | 0.00 | 0.00 | 0.00 | 70 | 1014.3 |
| 20260901022537 | 85 | 0 | 0.0 | 0.0 | 0.00 | 0.00 | 0.00 | 69 | 1014.1 |
| 20260901022037 | 86 | 0 | 0.0 | 0.0 | 0.00 | 0.00 | 0.00 | 69 | 1014.1 |
| 20260901021606 | 86 | 0 | 0.0 | 0.0 | 0.00 | 0.00 | 0.00 | 68 | 1014.2 |
| 20260901021038 | 86 | 0 | 0.0 | 0.0 | 0.00 | 0.00 | 0.00 | 67 | 1014.1 |
| 20260901020541 | 87 | 0 | 0.0 | 0.0 | 0.00 | 0.00 | 0.00 | 67 | 1014.1 |
| 20260901020059 | 87 | 0 | 0.0 | 0.0 | 0.00 | 0.00 | 0.00 | 66 | 1014.1 |
| 20260901015538 | 87 | 0 | 0.0 | 0.0 | 0.00 | 0.00 | 0.00 | 65 | 1014.1 |
| 20260901015037 | 88 | 0 | 0.0 | 0.0 | 0.00 | 0.00 | 0.00 | 65 | 1013.9 |
| 20260901014604 | 88 | 0 | 0.0 | 0.0 | 0.00 | 0.00 | 0.00 | 64 | 1013.9 |
| 20260901014038 | 88 | 0 | 0.0 | 0.0 | 0.00 | 0.00 | 0.00 | 64 | 1014.0 |
| 20260901013538 | 88 | 0 | 0.0 | 0.0 | 0.00 | 0.00 | 0.00 | 64 | 1013.9 |
| 20260901013055 | 88 | 0 | 0.0 | 0.0 | 0.00 | 0.00 | 0.00 | 64 | 1013.9 |
| 20260901012537 | 88 | 0 | 0.0 | 0.0 | 0.00 | 0.00 | 0.00 | 64 | 1014.0 |
| 20260901012037 | 89 | 0 | 0.0 | 0.0 | 0.00 | 0.00 | 0.00 | 63 | 1014.0 |
| 20260901011603 | 89 | 0 | 0.0 | 0.0 | 0.00 | 0.00 | 0.00 | 63 | 1013.9 |
| 20260901011051 | 89 | 0 | 0.0 | 6.0 | 0.00 | 0.00 | 0.00 | 62 | 1013.7 |
| 20260901010539 | 89 | 0 | 0.0 | 10.0 | 0.00 | 0.00 | 0.00 | 61 | 1013.7 |
| 20260901010103 | 90 | 0 | 0.0 | 10.0 | 0.00 | 0.00 | 0.00 | 61 | 1013.7 |
| 20260901005538 | 90 | 169 | 0.0 | 12.0 | 0.00 | 0.00 | 0.00 | 61 | 1013.7 |
| 20260901005039 | 90 | 0 | 1.0 | 12.0 | 0.00 | 0.00 | 0.00 | 61 | 1013.8 |
| 20260901004601 | 91 | 0 | 0.0 | 11.0 | 0.00 | 0.00 | 0.00 | 60 | 1013.8 |
| 20260901004038 | 91 | 0 | 0.0 | 11.0 | 0.00 | 0.00 | 0.00 | 59 | 1013.7 |
| 20260901003540 | 92 | 0 | 0.0 | 12.0 | 0.00 | 0.00 | 0.00 | 57 | 1013.6 |
| 20260901003101 | 93 | 0 | 1.0 | 14.0 | 0.00 | 0.00 | 0.00 | 56 | 1013.6 |
| 20260901002538 | 94 | 0 | 1.0 | 14.0 | 0.00 | 0.00 | 0.00 | 54 | 1013.4 |
| 20260901002037 | 94 | 0 | 1.0 | 10.0 | 0.00 | 0.00 | 0.00 | 51 | 1013.4 |
| 20260901001601 | 94 | 0 | 0.0 | 1.0 | 0.00 | 0.00 | 0.00 | 49 | 1013.3 |
| 20260901001037 | 95 | 0 | 0.0 | 1.0 | 0.00 | 0.00 | 0.00 | 49 | 1013.3 |
| 20260901000541 | 95 | 0 | 0.0 | 1.0 | 0.00 | 0.00 | 0.00 | 49 | 1013.3 |
| 20260901000100 | 95 | 0 | 0.0 | 7.0 | 0.00 | 0.00 | 0.00 | 48 | 1013.1 |
| 20260831235537 | 96 | 0 | 0.0 | 7.0 | 0.00 | 0.00 | 0.00 | 48 | 1013.3 |
| 20260831235038 | 96 | 0 | 0.0 | 0.0 | 0.00 | 0.00 | 0.00 | 48 | 1013.3 |
| 20260831234601 | 96 | 0 | 0.0 | 1.0 | 0.00 | 0.00 | 0.00 | 47 | 1013.3 |
| 20260831234039 | 96 | 0 | 0.0 | 1.0 | 0.00 | 0.00 | 0.00 | 48 | 1013.2 |
| 20260831233538 | 96 | 0 | 0.0 | 0.0 | 0.00 | 0.00 | 0.00 | 47 | 1013.2 |